Location: ??????
(38.3184°N, 23.6932°E)
Time: 02:08:13
(UTC+00:00)

Cosmos 1953 - Pass Details

Date: 16 October 2021
Orbit: 537 x 557 km, 82.5° (Epoch: 04 December)

Event Time Altitude Azimuth Distance (km) Brightness Sun altitude
Rises 16:32:19 0° 174° (S) 2,713 5.8 -9.9°
Reaches altitude 10° 16:34:31 10° 169° (SSE) 1,826 4.9 -10.3°
Maximum altitude 16:38:24 50° 93° (E) 714 2.5 -11.1°
Drops below altitude 10° 16:42:21 10° 18° (NNE) 1,848 4.8 -11.8°
Sets 16:44:34 0° 13° (NNE) 2,749 5.7 -12.3°
